When you browse on this site, cookies collect data to enhance your experience and personalize the content and advertising you see.
Visit our Privacy Policy to learn more. By continuing to use the site, you agree to this use of cookies and data.
  • In France
  • List of Countries
  • For 7 days
  • Water Temperature
  • Weather Map
  • Weather Widgets
  • user-avatar
    Login

    Hourly Weather Tibissa

    Today, 6 June, Saturday

    Time Temperature Precipitation Wind Pressure Humidity
    00:00 +19°C° 0 mm 1 mps 684 mmHg 55%
    01:00 +19°C° 0 mm 1 mps 684 mmHg 57%
    02:00 +18°C° 0 mm 1 mps 684 mmHg 58%
    03:00 +18°C° 0 mm 1 mps 684 mmHg 58%
    04:00 +18°C° 0 mm 1 mps 683 mmHg 59%
    05:00 +18°C° 0 mm 1 mps 684 mmHg 55%
    06:00 +17°C° 0 mm 0 mps 684 mmHg 52%
    07:00 +20°C° 0 mm 1 mps 685 mmHg 48%
    08:00 +21°C° 0 mm 1 mps 685 mmHg 42%
    09:00 +23°C° 0 mm 2 mps 685 mmHg 37%
    10:00 +24°C° 0 mm 3 mps 686 mmHg 31%
    11:00 +25°C° 0 mm 3 mps 686 mmHg 29%
    12:00 +27°C° 0 mm 4 mps 686 mmHg 26%
    13:00 +28°C° 0 mm 4 mps 686 mmHg 23%
    14:00 +29°C° 0 mm 5 mps 686 mmHg 23%
    15:00 +29°C° 0 mm 5 mps 685 mmHg 23%
    16:00 +30°C° 0 mm 5 mps 685 mmHg 22%
    17:00 +30°C° 0 mm 5 mps 685 mmHg 24%
    18:00 +29°C° 0 mm 4 mps 685 mmHg 25%
    19:00 +29°C° 0 mm 3 mps 685 mmHg 26%
    20:00 +27°C° 0 mm 3 mps 685 mmHg 30%
    21:00 +26°C° 0 mm 2 mps 684 mmHg 33%
    22:00 +25°C° 0 mm 1 mps 684 mmHg 36%
    23:00 +25°C° 0 mm 1 mps 684 mmHg 36%

    Tomorrow, 7 June, Sunday

    Time Temperature Precipitation Wind Pressure Humidity
    00:00 +25°C° 0 mm 1 mps 683 mmHg 35%
    01:00 +24°C° 0 mm 1 mps 683 mmHg 35%
    02:00 +24°C° 0 mm 2 mps 683 mmHg 36%
    03:00 +24°C° 0 mm 2 mps 683 mmHg 37%
    04:00 +22°C° 0 mm 3 mps 682 mmHg 38%
    05:00 +24°C° 0 mm 3 mps 682 mmHg 37%
    06:00 +24°C° 0 mm 2 mps 682 mmHg 37%
    07:00 +25°C° 0 mm 2 mps 682 mmHg 37%
    08:00 +27°C° 0.1 mm 4 mps 683 mmHg 32%
    09:00 +29°C° 0.1 mm 6 mps 683 mmHg 28%
    10:00 +31°C° 0.1 mm 9 mps 684 mmHg 24%
    11:00 +32°C° 0.1 mm 9 mps 684 mmHg 24%
    12:00 +33°C° 0.1 mm 9 mps 683 mmHg 23%
    13:00 +33°C° 0.1 mm 9 mps 683 mmHg 23%
    14:00 +33°C° 0 mm 9 mps 683 mmHg 24%
    15:00 +34°C° 0 mm 9 mps 682 mmHg 25%
    16:00 +34°C° 0 mm 9 mps 682 mmHg 26%
    17:00 +31°C° 0 mm 8 mps 681 mmHg 36%
    18:00 +27°C° 0 mm 8 mps 681 mmHg 45%
    19:00 +23°C° 0 mm 7 mps 681 mmHg 55%
    20:00 +22°C° 0 mm 7 mps 682 mmHg 58%
    21:00 +21°C° 0 mm 6 mps 682 mmHg 61%
    22:00 +20°C° 0 mm 6 mps 683 mmHg 64%
    23:00 +19°C° 0 mm 5 mps 682 mmHg 65%

    Day after tomorrow, 8 June, Monday

    Time Temperature Precipitation Wind Pressure Humidity
    00:00 +19°C° 0 mm 4 mps 682 mmHg 66%
    01:00 +19°C° 0 mm 3 mps 682 mmHg 66%
    02:00 +18°C° 0 mm 2 mps 682 mmHg 68%
    03:00 +18°C° 0 mm 2 mps 682 mmHg 69%
    04:00 +18°C° 0 mm 2 mps 681 mmHg 70%
    05:00 +19°C° 0 mm 1 mps 682 mmHg 66%
    06:00 +20°C° 0 mm 1 mps 682 mmHg 63%
    07:00 +20°C° 0 mm 1 mps 682 mmHg 59%
    08:00 +22°C° 0 mm 1 mps 682 mmHg 51%
    09:00 +24°C° 0 mm 1 mps 683 mmHg 43%
    10:00 +26°C° 0 mm 1 mps 683 mmHg 36%
    11:00 +27°C° 0 mm 2 mps 683 mmHg 32%
    12:00 +29°C° 0 mm 3 mps 683 mmHg 28%
    13:00 +30°C° 0 mm 4 mps 683 mmHg 24%
    14:00 +30°C° 0.1 mm 5 mps 683 mmHg 25%
    15:00 +30°C° 0.1 mm 7 mps 683 mmHg 26%
    16:00 +31°C° 0.1 mm 8 mps 683 mmHg 28%
    17:00 +29°C° 0.4 mm 6 mps 682 mmHg 34%
    18:00 +27°C° 0.4 mm 5 mps 682 mmHg 41%
    19:00 +25°C° 0.4 mm 3 mps 682 mmHg 47%
    20:00 +22°C° 0.6 mm 3 mps 683 mmHg 54%
    21:00 +21°C° 0.6 mm 3 mps 683 mmHg 61%
    22:00 +20°C° 0.6 mm 3 mps 683 mmHg 68%
    23:00 +19°C° 0 mm 3 mps 683 mmHg 71%

    9 June, Tuesday

    Time Temperature Precipitation Wind Pressure Humidity
    00:00 +19°C° 0 mm 3 mps 683 mmHg 74%
    01:00 +18°C° 0 mm 3 mps 683 mmHg 77%
    02:00 +18°C° 0.1 mm 3 mps 683 mmHg 78%
    03:00 +18°C° 0.1 mm 3 mps 682 mmHg 79%
    04:00 +17°C° 0.1 mm 2 mps 682 mmHg 80%
    05:00 +18°C° 0 mm 2 mps 683 mmHg 78%
    06:00 +19°C° 0 mm 1 mps 683 mmHg 75%
    07:00 +19°C° 0 mm 1 mps 683 mmHg 73%
    08:00 +20°C° 0 mm 1 mps 684 mmHg 68%
    09:00 +21°C° 0 mm 1 mps 684 mmHg 62%
    10:00 +23°C° 0 mm 2 mps 684 mmHg 57%
    11:00 +24°C° 0.3 mm 2 mps 684 mmHg 52%
    12:00 +25°C° 0.3 mm 1 mps 684 mmHg 48%
    13:00 +26°C° 0.3 mm 1 mps 684 mmHg 43%
    14:00 +26°C° 0.1 mm 2 mps 684 mmHg 44%
    15:00 +26°C° 0.1 mm 2 mps 684 mmHg 44%
    16:00 +26°C° 0.1 mm 2 mps 684 mmHg 45%
    17:00 +25°C° 0 mm 3 mps 684 mmHg 48%
    18:00 +25°C° 0 mm 3 mps 684 mmHg 51%
    19:00 +24°C° 0 mm 3 mps 684 mmHg 55%
    20:00 +22°C° 0.6 mm 3 mps 685 mmHg 61%
    21:00 +21°C° 0.6 mm 3 mps 685 mmHg 67%
    22:00 +20°C° 0.6 mm 3 mps 686 mmHg 73%
    23:00 +19°C° 0.6 mm 3 mps 686 mmHg 76%

    10 June, Wednesday

    Time Temperature Precipitation Wind Pressure Humidity
    00:00 +18°C° 0.6 mm 2 mps 686 mmHg 80%
    01:00 +18°C° 0.6 mm 2 mps 685 mmHg 83%
    02:00 +18°C° 0.1 mm 2 mps 685 mmHg 84%
    03:00 +19°C° 0.1 mm 1 mps 685 mmHg 84%
    04:00 +19°C° 0.1 mm 1 mps 685 mmHg 85%
    05:00 +19°C° 0 mm 1 mps 685 mmHg 80%
    06:00 +18°C° 0 mm 2 mps 685 mmHg 76%
    07:00 +19°C° 0 mm 2 mps 685 mmHg 71%
    08:00 +21°C° 0 mm 3 mps 686 mmHg 60%
    09:00 +22°C° 0 mm 5 mps 686 mmHg 49%
    10:00 +24°C° 0 mm 6 mps 687 mmHg 39%
    11:00 +26°C° 0 mm 7 mps 687 mmHg 37%
    12:00 +27°C° 0 mm 7 mps 687 mmHg 35%
    13:00 +28°C° 0 mm 8 mps 686 mmHg 33%
    14:00 +27°C° 1 mm 7 mps 686 mmHg 41%
    15:00 +24°C° 1 mm 6 mps 685 mmHg 49%
    16:00 +23°C° 1 mm 5 mps 685 mmHg 56%
    17:00 +22°C° 1.4 mm 5 mps 685 mmHg 60%
    18:00 +21°C° 1.4 mm 4 mps 685 mmHg 63%
    19:00 +20°C° 1.4 mm 4 mps 685 mmHg 66%
    20:00 +20°C° 0.1 mm 4 mps 685 mmHg 70%
    21:00 +19°C° 0.1 mm 3 mps 685 mmHg 74%
    22:00 +19°C° 0.1 mm 3 mps 686 mmHg 77%
    23:00 +18°C° 0.2 mm 3 mps 685 mmHg 78%

    11 June, Thursday

    Time Temperature Precipitation Wind Pressure Humidity
    00:00 +18°C° 0.2 mm 2 mps 685 mmHg 78%
    01:00 +19°C° 0.2 mm 1 mps 685 mmHg 79%
    02:00 +18°C° 0.1 mm 1 mps 684 mmHg 80%
    03:00 +18°C° 0.1 mm 1 mps 684 mmHg 81%
    04:00 +18°C° 0.1 mm 1 mps 684 mmHg 83%
    05:00 +18°C° 0 mm 1 mps 684 mmHg 81%
    06:00 +18°C° 0 mm 1 mps 684 mmHg 78%
    07:00 +19°C° 0 mm 1 mps 684 mmHg 76%
    08:00 +20°C° 0 mm 1 mps 685 mmHg 71%
    09:00 +21°C° 0 mm 1 mps 685 mmHg 66%
    10:00 +21°C° 0 mm 2 mps 685 mmHg 61%
    11:00 +22°C° 0.1 mm 3 mps 685 mmHg 56%
    12:00 +24°C° 0.1 mm 3 mps 685 mmHg 51%
    13:00 +25°C° 0.1 mm 4 mps 685 mmHg 45%
    14:00 +26°C° 0.1 mm 4 mps 685 mmHg 41%
    15:00 +26°C° 0.1 mm 4 mps 685 mmHg 38%
    16:00 +27°C° 0.1 mm 4 mps 685 mmHg 34%
    17:00 +26°C° 0 mm 5 mps 684 mmHg 33%
    18:00 +26°C° 0 mm 5 mps 684 mmHg 32%
    19:00 +25°C° 0 mm 5 mps 684 mmHg 31%
    20:00 +23°C° 0 mm 4 mps 684 mmHg 35%
    21:00 +22°C° 0 mm 3 mps 685 mmHg 40%
    22:00 +20°C° 0 mm 2 mps 685 mmHg 45%
    23:00 +20°C° 0 mm 2 mps 685 mmHg 47%
    Show more